Weather History for Palm Springs, CA

Change the Weather History Date:

Sunday, July 22, 2012

  Actual Average Record
Temperature  
Mean Temperature 95 °F 93 °F  
Max Temperature 104 °F 108 °F 121 °F (2006)
Min Temperature 86 °F 78 °F 61 °F (1957)
Degree Days  
Heating Degree Days 0 0  
Month to date heating degree days 0 0  
Since 1 June heating degree days 0 0  
Since 1 July heating degree days 0 0  
Cooling Degree Days 30 28  
Month to date cooling degree days 597 596  
Year to date cooling degree days 2237 2002  
Since 1 June cooling degree days 1298 1243  
Growing Degree Days 45 (Base 50)    
Moisture  
Dew Point 59 °F    
Average Humidity 34    
Maximum Humidity 41    
Minimum Humidity 27    
Precipitation  
Precipitation 0.00 in 0.01 in 1.13 in (1934)
Month to date precipitation T 0.10  
Year to date precipitation 0.79 3.04  
Since 1 July precipitation T 0.10  
Snow  
Snow 0.00 in - - ()
Month to date snowfall 0.0  
Year to date snowfall 0.0  
Since 1 July snowfall 0.0  
Snow Depth 0.00 in    
Sea Level Pressure  
Sea Level Pressure 29.81 in    
Wind  
Wind Speed 6 mph (East)    
Max Wind Speed 13 mph    
Max Gust Speed 16 mph    
Visibility 10 miles    
Events      
T = Trace of Precipitation, MM = Missing Value Source: NWS Daily Summary

Daily Weather History Graph

Daily Weather History Graph

Search for Another Location

Airport:

Trip Planner

Search our weather history database for the weather conditions in past years. The results will help you decide how hot, cold, wet, or windy it might be!

Date:

Astronomy

Jul. 22, 2012 Rise Set
Actual Time 5:51 AM PDT 7:53 PM PDT
Civil Twilight 5:23 AM PDT 8:21 PM PDT
Nautical Twilight 4:49 AM PDT 8:55 PM PDT
Astronomical Twilight 4:12 AM PDT 9:31 PM PDT
Moon 9:27 AM PDT (7/22) 9:54 PM PDT (7/22)
Length of Visible Light 14h 58m
Length of Day
14h 02m
Waxing Crescent, 14% of the Moon is Illuminated
Jul 22
Waxing Crescent
Jul 26
First Quarter
Aug 1
Full
Aug 9
Last Quarter
Aug 17
New

Hourly Weather History & Observations

Time (PDT) Temp. Heat Index Dew Point Humidity Pressure Visibility Wind Dir Wind Speed Gust Speed Precip Events Conditions
12:53 AM 91.9 °F 89.5 °F 53.1 °F 27% 29.78 in 10.0 mi South 3.5 mph - N/A   Clear
1:53 AM 90.0 °F 87.9 °F 55.0 °F 30% 29.78 in 10.0 mi Calm Calm - N/A   Clear
2:53 AM 88.0 °F - 52.0 °F 29% 29.82 in 10.0 mi SSE 5.8 mph - N/A   Clear
3:53 AM 89.1 °F 86.9 °F 54.0 °F 30% 29.82 in 10.0 mi WNW 3.5 mph - N/A   Clear
4:53 AM 88.0 °F - 52.0 °F 29% 29.83 in 10.0 mi NW 5.8 mph - N/A   Clear
5:53 AM 86.0 °F 84.0 °F 53.1 °F 32% 29.84 in 10.0 mi NNE 4.6 mph - N/A   Clear
6:10 AM 86.0 °F - 51.8 °F 31% 29.86 in 10.0 mi North 5.8 mph - N/A   Partly Cloudy
6:53 AM 87.1 °F 85.1 °F 54.0 °F 32% 29.86 in 10.0 mi North 3.5 mph - N/A   Clear
7:53 AM 91.0 °F 89.7 °F 57.0 °F 32% 29.88 in 10.0 mi NNE 3.5 mph - N/A   Clear
8:53 AM 93.0 °F 95.0 °F 64.9 °F 39% 29.89 in 10.0 mi SSE 5.8 mph - N/A   Clear
9:53 AM 93.9 °F 97.5 °F 66.9 °F 41% 29.89 in 10.0 mi SE 6.9 mph - N/A   Clear
10:53 AM 96.1 °F 99.3 °F 66.0 °F 37% 29.88 in 10.0 mi ESE 6.9 mph - N/A   Clear
11:53 AM 98.1 °F 101.8 °F 66.0 °F 35% 29.86 in 10.0 mi ESE 9.2 mph - N/A   Clear
12:53 PM 100.0 °F 104.2 °F 66.0 °F 33% 29.83 in 10.0 mi Variable 4.6 mph - N/A   Clear
1:53 PM 100.0 °F 103.6 °F 64.9 °F 32% 29.81 in 10.0 mi Variable 6.9 mph - N/A   Clear
2:53 PM 100.0 °F 104.2 °F 66.0 °F 33% 29.79 in 10.0 mi SE 6.9 mph - N/A   Clear
3:53 PM 104.0 °F 108.1 °F 64.9 °F 28% 29.76 in 10.0 mi ESE 9.2 mph - N/A   Clear
4:53 PM 102.0 °F 104.6 °F 63.0 °F 28% 29.74 in 10.0 mi SSE 8.1 mph - N/A   Clear
5:53 PM 102.9 °F 104.8 °F 62.1 °F 26% 29.73 in 10.0 mi ENE 4.6 mph - N/A   Clear
6:53 PM 102.9 °F 104.8 °F 62.1 °F 26% 29.73 in 10.0 mi SE 5.8 mph - N/A   Clear
7:53 PM 100.9 °F 102.7 °F 62.1 °F 28% 29.74 in 10.0 mi East 6.9 mph - N/A   Partly Cloudy
8:53 PM 100.0 °F 98.3 °F 55.0 °F 22% 29.76 in 10.0 mi NW 6.9 mph - N/A   Clear
9:53 PM 97.0 °F - 51.1 °F 21% 29.79 in 10.0 mi NW 12.7 mph - N/A   Clear
10:53 PM 93.0 °F 91.1 °F 55.0 °F 28% 29.81 in 10.0 mi NW 11.5 mph - N/A   Clear
11:53 PM 91.0 °F 88.9 °F 55.0 °F 29% 29.81 in 10.0 mi Calm Calm - N/A   Clear